This demonstration page uses our WeatherBlox Daily Observations layout. Learn more.

Left ArrowRight Arrow

36.17497, -115.13722

Hourly Observations for October 15, 2019

Temp ( °F °C ) Dew Point ( °F °C ) Humidity (%) Winds ( mph kmh ) Pressure ( in mb ) Visibility ( mi km ) Precip ( " mm )
12:53 am 00:53 Clear 61 16.1 30 -1.1 31 31 W 5 7 30.02 1017 10 16.0934 N/A
1:53 am 01:53 Clear 61 16.1 25 -3.9 25 25 N N/A 30.04 1017 10 16.0934 N/A
2:53 am 02:53 Clear 63 17.2 19 -7.2 18 18 NNW 6 9 30.04 1017 10 16.0934 N/A
3:53 am 03:53 Clear 62 16.7 18 -7.8 18 18 NW 8 13 30.04 1017 10 16.0934 N/A
4:53 am 04:53 Clear 58 14.4 22 -5.6 25 25 SW 3 6 30.07 1018 10 16.0934 N/A
5:53 am 05:53 Clear 59 15 19 -7.2 21 21 NNW 5 7 30.09 1019 10 16.0934 N/A
6:53 am 06:53 Sunny 58 14.4 21 -6.1 24 24 N N/A 30.11 1020 10 16.0934 N/A
7:53 am 07:53 Sunny 61 16.1 19 -7.2 20 20 W 6 9 30.13 1020 10 16.0934 N/A
8:53 am 08:53 Sunny 66 18.9 25 -3.9 21 21 N N/A 30.15 1021 10 16.0934 N/A
9:53 am 09:53 Sunny 72 22.2 21 -6.1 15 15 N N/A 30.15 1021 10 16.0934 N/A
10:53 am 10:53 Sunny 74 23.3 21 -6.1 14 14 N N/A 30.13 1020 10 16.0934 N/A
11:53 am 11:53 Sunny 77 25 21 -6.1 12 12 N N/A 30.11 1020 10 16.0934 N/A
12:53 pm 12:53 Sunny 79 26.1 22 -5.6 12 12 N N/A 30.09 1019 10 16.0934 N/A
1:53 pm 13:53 Sunny 82 27.8 24 -4.4 12 12 VRB 3 6 30.06 1018 10 16.0934 N/A
2:53 pm 14:53 Sunny 83 28.3 30 -1.1 15 15 ESE 5 7 30.04 1017 10 16.0934 N/A
3:53 pm 15:53 Sunny 84 28.9 28 -2.2 13 13 E 3 6 30.04 1017 10 16.0934 N/A
4:53 pm 16:53 Sunny 83 28.3 29 -1.7 14 14 SE 5 7 30.03 1017 10 16.0934 N/A
5:53 pm 17:53 Sunny 82 27.8 29 -1.7 14 14 N N/A 30.03 1017 10 16.0934 N/A
6:53 pm 18:53 Clear 78 25.6 30 -1.1 17 17 WNW 3 6 30.03 1017 10 16.0934 N/A
7:53 pm 19:53 Clear 71 21.7 30 -1.1 22 22 NW 7 11 30.05 1018 10 16.0934 N/A
8:53 pm 20:53 Clear 69 20.6 28 -2.2 22 22 NW 5 7 30.05 1018 10 16.0934 N/A
9:53 pm 21:53 Clear 74 23.3 24 -4.4 15 15 NW 10 17 30.05 1018 10 16.0934 N/A
10:53 pm 22:53 Clear 70 21.1 26 -3.3 19 19 S 5 7 30.06 1018 10 16.0934 N/A
11:53 pm 23:53 Clear 66 18.9 25 -3.9 21 21 W 6 9 30.06 1018 10 16.0934 N/A

Powered by AerisWeather